SONATE
1 44400U 19038Q   25128.03828184  .00144089  00000-0  75369-3 0  9994
2 44400  97.6946 150.9474 0003593  46.6854 313.4712 15.80423501324412
Taurus 1
1 44530U 19059C   25128.84461269  .00008597  00000-0  15954-2 0  9993
2 44530  98.6028 266.7479 0010826 134.5643 225.6444 14.65441547299294
Duchifat 3
1 44854U 19089C   25128.57559087  .00043171  00000-0  92107-3 0  9994
2 44854  36.9434 198.2758 0000709   2.8206 357.2554 15.43922417297995
TO-108
1 44881U 19093C   25128.49863421  .00001268  00000-0  15277-3 0  9994
2 44881  97.7929 204.8190 0013231 342.9142  17.1626 14.85535144291318
FloripaSat 1
1 44885U 19093G   25128.82558656  .00005946  00000-0  50648-3 0  9994
2 44885  97.8147 216.3716 0009823 313.2999  46.7403 14.98120224291998
RS-44
1 44909U 19096E   25128.42221900  .00000003  00000-0 -32647-4 0  9999
2 44909  82.5212 248.6410 0217523  11.0737 349.5040 12.79740391250625
UPMSat 2
1 46276U 20061E   25128.23759573  .00059840  00000-0  61893-3 0  9999
2 46276  97.2464 201.6322 0001352 155.7971 204.3352 15.64555201260406
SALSAT
1 46495U 20068K   25127.49176997  .00008587  00000-0  37590-3 0  9998
2 46495  97.8582 104.0082 0009491 279.1572  80.8589 15.22269545253492
CubeSX-Sirius-HSE
1 47951U 21022V   25128.73066075  .00297538  00000-0  13905-2 0  9999
2 47951  97.4162  40.3667 0008522  95.0636 265.1606 15.82450344228799
CubeSX-HSE
1 47952U 21022W   25128.80856146  .00310107  00000-0  14123-2 0  9995
2 47952  97.4182  40.7077 0007699  94.4380 265.7768 15.82983969228827
GRBAlpha
1 47959U 21022AD  25128.79237663  .00280355  00000-0  13509-2 0  9995
2 47959  97.4164  40.7827 0008072  93.8074 266.4118 15.81835772227649
TUBIN
1 48900U 21059X   25128.82656959  .00047687  00000-0  64155-3 0  9992
2 48900  97.6734 295.5464 0002421 352.0417   8.0798 15.57737225215098
LEDSAT
1 49069U 21073D   25128.26939296  .00059963  00000-0  83855-3 0  9999
2 49069  97.3910 208.5601 0011969 191.6609 168.4371 15.56559110206409
CUTE
1 49263U 21088D   25128.13194823  .00034085  00000-0  70250-3 0  9999
2 49263  97.4522 203.4746 0007781  10.2854 349.8552 15.45803232199417
TeikyoSat 4
1 49396U 21102B   25128.69168616  .00002156  00000-0  14585-3 0  9998
2 49396  97.4132 168.2695 0010997 238.1496 121.8663 15.07504370191746
Z-Sat
1 49399U 21102E   25128.90006174  .00004666  00000-0  25870-3 0  9992
2 49399  97.3831 171.3735 0017441 208.8062 151.2209 15.14132254192186
KOSEN 1
1 49402U 21102H   25128.67803340  .00007777  00000-0  36461-3 0  9995
2 49402  97.3738 174.3364 0016137 184.5596 175.5495 15.19836379192440
HO-113
1 50466U 21131B   25128.88504133  .00000687  00000-0  22855-3 0  9995
2 50466  98.5087 218.3964 0003460 216.0009 144.0947 14.40774801176889
IRIS-A
1 51044U 22002BN  25127.71526739  .00287642  00000-0  10908-2 0  9996
2 51044  97.3232 206.6175 0005984 239.8608 120.2071 15.86905914184667
Foresail-1
1 52766U 22057AL  25128.35964030  .00192784  00000-0  95386-3 0  9995
2 52766  97.6034 276.6917 0002375 287.9763  72.1245 15.81517363164781
SNUGLITE 2
1 52899U 22065F   25128.34899921  .00001621  00000-0  32444-3 0  9991
2 52899  98.1639 270.6462 0007119 205.3794 154.7059 14.63132065151779
IO-117
1 53106U 22080B   25051.21822557 -.00000003  00000-0  00000+0 0  9995
2 53106  70.1434 106.3440 0008542  48.0089 312.1297  6.42557744 61200
UmKA 1 (RS40S)
1 57172U 23091G   25128.84128792  .00007319  00000-0  39441-3 0  9990
2 57172  97.5608 184.3928 0016125  86.1825 274.1250 15.14986057102672
CubeBel-2 (EU11S)
1 57175U 23091K   25128.88507851  .00010969  00000-0  53071-3 0  9994
2 57175  97.5611 185.3970 0014066  94.7254 265.5587 15.18679457102742
VERONIKA
1 58261U 23174F   25128.83267148  .00114133  00000-0  12669-2 0  9995
2 58261  97.4143 213.3009 0007023 174.5275 185.6061 15.62526490 83719
ENSO
1 58470U 23185J   25128.83065233  .00052467  00000-0  85280-3 0  9991
2 58470  97.3761 203.0110 0008717 189.4893 170.6196 15.52495748 80100
EIRSAT-1
1 58472U 23185L   25128.85291625  .00091577  00000-0  10672-2 0  9998
2 58472  97.3722 204.4544 0007832 190.8920 169.2170 15.61333918 80206
SONATE-2
1 59112U 24043Q   25128.10058601  .00017282  00000-0  51542-3 0  9990
2 59112  97.5085 258.6635 0010953 224.9908 135.0448 15.34660887 65353
MO-122
1 60209U 24125G   25128.51264308  .00018369  00000-0  54044-3 0  9995
2 60209  97.2838 340.5108 0017650 250.0506 109.8837 15.34974489 47038
GRBBeta
1 60237U 24128C   25128.19197418  .00003703  00000-0  28723-3 0  9991
2 60237  61.9914 192.4574 0049177  50.1169 310.4230 15.02345480 45332
Curium One
1 60242U 24128H   25128.14654014  .00005587  00000-0  40019-3 0  9996
2 60242  61.9814 191.3626 0049172  45.7051 314.8057 15.04612929 45352
ROBUSTA-3A
1 60243U 24128J   25128.40546338  .00006436  00000-0  46447-3 0  9990
2 60243  61.9885 191.1802 0047720  43.5821 316.9025 15.04194900 45388
CatSat
1 60246U 24125J   25127.86006741  .00009549  00000-0  32579-3 0  9997
2 60246  97.2629 339.4418 0042517 208.6622 151.2282 15.29663483 44985
HYPERVIEW-1G (RS66S)
1 61772U 24199AP  25128.86086606  .00022340  00000-0  67424-3 0  9993
2 61772  97.3586 357.8077 0012144 310.6692  49.3495 15.34213697 72092
AO-123
1 61781U 24199AY  25128.88727238  .00007334  00000-0  27096-3 0  9995
2 61781  97.3599 357.0366 0014522 314.8462  45.1597 15.27929926 72045
ZIMSAT 2
1 61783U 24199BA  25128.87990714  .00035823  00000-0  94101-3 0  9992
2 61783  97.3569 358.2221 0011973 308.0413  51.9751 15.38456951 75275
HADES-R (SO-124)
1 62690U 25009CK  25127.73557042  .00030278  00000-0  11463-2 0  9996
2 62690  97.4099 208.7263 0004279 185.1848 174.9347 15.26864354 17139
HYDRA-T
1 62692U 25009CM  25127.72588729  .00036605  00000-0  13755-2 0  9999
2 62692  97.4100 208.7382 0004206 182.0406 178.0816 15.27071655 17133
JINJUSat 1B
1 63210U 25052A   25127.68562846  .00012376  00000-0  57878-3 0  9995
2 63210  97.4457  22.2373 0006552  82.3961 277.8018 15.19890733  8250
NUSHSAT 1
1 63211U 25052B   25127.68453341  .00013509  00000-0  62880-3 0  9993
2 63211  97.4450  22.2327 0006602  86.1261 274.0729 15.20032221  8254
TEVEL2-4
1 63213U 25052D   25127.69208964  .00013252  00000-0  62165-3 0  9996
2 63213  97.4367  22.1672 0005742  97.6449 262.5438 15.19772048  8259
TEVEL2-5
1 63214U 25052E   25127.95570572  .00011381  00000-0  53461-3 0  9993
2 63214  97.4367  22.4264 0005743  97.2321 262.9567 15.19762615  8296
TEVEL2-6
1 63215U 25052F   25127.69361241  .00013371  00000-0  62813-3 0  9998
2 63215  97.4369  22.1660 0005800  98.1358 262.0535 15.19719616  8255
TEVEL2-1
1 63217U 25052H   25128.16112852  .00011863  00000-0  56085-3 0  9993
2 63217  97.4342  22.5946 0005864 106.4193 253.7687 15.19528482  8321
TEVEL2-2
1 63218U 25052J   25127.96383302  .00011414  00000-0  53991-3 0  9996
2 63218  97.4345  22.4000 0005896 107.0948 253.0933 15.19518305  8291
TEVEL2-3
1 63219U 25052K   25127.89801149  .00011519  00000-0  54492-3 0  9996
2 63219  97.4346  22.3352 0005881 107.3288 252.8590 15.19513983  8288
TEVEL2-8
1 63237U 25052AD  25127.67430340  .00012315  00000-0  60187-3 0  9996
2 63237  97.4404  22.0661 0010106 122.4040 237.8173 15.18333791  8245
TEVEL2-9
1 63238U 25052AE  25127.93910923  .00010397  00000-0  50941-3 0  9991
2 63238  97.4406  22.3250 0010169 121.7304 238.4922 15.18289217  8285
TEVEL2-7
1 63239U 25052AF  25127.94031399  .00010328  00000-0  50658-3 0  9993
2 63239  97.4406  22.3227 0010165 122.0609 238.1613 15.18253619  8289
HYDRA-W
1 63490U 25052BL  25127.68061376  .00027546  00000-0  12212-2 0  9994
2 63490  97.4356  22.1777 0014597 121.9879 238.2778 15.21476304  8252
HADES-ICM
1 63492U 25052BN  25127.68738874  .00027000  00000-0  12089-2 0  9997
2 63492  97.4362  22.1715 0014855 125.6616 234.6005 15.21139036  8251
